Vorticity
17 4 9 5 12 8 6 6 6 7 7 9 5 6 9 9 8 9 7 7 6 5
5 7 8 9 9 7 6 4 4 7 8 9 10 9 7 7 4 5 3 3 3 6
5 10 7 7 6 5 4 4 6 9 9 8 7 5 5 4 3 5 9 14 14 13
6 8 5 3 5 5 5 6 9 10 9 6 5 5 2 5 9 15 10 3 6 3
7 3 5 4 4 4 7 11 11 7 6 6 3 3 7 12 15 10 4 6 4 3
4 3 2 2 4 8 13 9 6 5 3 2 3 8 10 10 6 6 5 6 8 13
3 2 3 6 10 11 8 5 4 4 4 4 8 12 8 8 5 4 3 11 6 6
3 5 12 11 8 6 5 4 3 3 6 8 13 8 7 4 5 5 11 5 6 7
7 10 13 11 7 5 5 5 7 10 12 13 8 5 6 7 10 8 11 9 11 11
14 9 5 4 5 4 5 7 8 8 9 8 7 5 11 9 8 10 12 12 8 7
5 4 5 4 3 3 8 11 9 9 7 6 10 8 7 13 15 13 10 8 7 5
4 4 5 6 9 12 9 9 8 7 7 6 6 11 13 11 9 8 7 4 5 11
4 8 9 8 8 8 4 5 7 7 7 9 14 14 11 8 8 4 3 7 7 6
10 9 7 8 7 6 5 7 6 8 13 14 11 9 7 6 5 3 6 8 2 3
Height
5774 5772 5770 5767 5765 5762 5761 5759 5756 5753 5750 5747 5743 5740 5737 5733 5729 5726 5722 5718 5714 5710
5767 5765 5763 5760 5757 5755 5754 5751 5748 5745 5741 5738 5735 5731 5728 5724 5720 5717 5712 5709 5705 5700
5761 5759 5756 5753 5750 5748 5745 5742 5739 5735 5732 5729 5725 5721 5718 5714 5710 5706 5701 5697 5693 5689
5754 5751 5748 5745 5742 5740 5737 5734 5730 5726 5723 5719 5715 5711 5707 5702 5698 5694 5689 5686 5682 5677
5746 5743 5740 5737 5734 5731 5727 5724 5720 5716 5713 5709 5704 5700 5696 5691 5687 5683 5679 5674 5670 5664
5738 5735 5731 5728 5725 5721 5717 5714 5710 5706 5702 5697 5693 5689 5683 5679 5675 5670 5665 5659 5654 5649
5728 5725 5722 5718 5715 5711 5707 5704 5700 5695 5691 5686 5681 5675 5669 5664 5660 5655 5650 5645 5639 5634
5719 5716 5712 5708 5704 5701 5697 5693 5688 5683 5678 5672 5667 5661 5656 5651 5645 5640 5635 5629 5623 5617
5710 5707 5702 5698 5695 5690 5686 5681 5675 5670 5664 5658 5652 5646 5641 5636 5630 5624 5619 5614 5607 5601
5699 5695 5691 5687 5682 5677 5672 5666 5660 5654 5649 5643 5637 5631 5625 5619 5615 5609 5602 5596 5591 5585
5688 5683 5678 5673 5667 5662 5656 5650 5645 5639 5633 5627 5620 5613 5607 5601 5596 5592 5586 5579 5572 5567
5675 5670 5664 5658 5653 5646 5641 5634 5628 5622 5615 5609 5603 5594 5587 5582 5578 5573 5568 5562 5555 5549
5660 5654 5649 5642 5636 5630 5623 5617 5611 5605 5597 5590 5585 5576 5569 5563 5559 5555 5549 5543 5536 5528
5644 5637 5630 5624 5617 5611 5605 5599 5592 5586 5579 5571 5563 5558 5550 5543 5539 5534 5530 5524 5517 5508